Location: Unspecified
(35.7250°N, 0.0000°E)
Time: 10:13:31
(UTC+00:00)

Vanguard 1 - Pass Details

Date: 26 June 2019
Orbit: 653 x 3830 km, 34.3° (Epoch: 20 July)

Event Time Altitude Azimuth Distance (km) Brightness Sun altitude
Rises 07:15:47 0° 284° (WNW) 5,845 13.5 27.7°
Reaches altitude 10° 07:20:36 10° 278° (W) 4,289 12.9 28.7°
Maximum altitude 07:29:56 39° 215° (SW) 1,749 11.3 30.5°
Drops below altitude 10° 07:35:32 10° 146° (SSE) 2,567 12.6 31.7°
Sets 07:37:43 0° 138° (SE) 3,303 13.2 32.1°
